Regional Weather Roundup
Issued by NWS

Home | Current Version | Previous Version | Text Only | Print | Product List | Glossary Off
Versions: 1 2 3 4 5 6 7 8 9 10 11 12 13 14 15 16 17 18 19 20 21 22 23 24 25 26 27 28 29 30 31 32 33 34 35 36 37 38

000
ASUS43 KDMX 270507
RWRIA

WEATHER ROUNDUP FOR IOWA
NATIONAL WEATHER SERVICE DES MOINES IA
1100 PM CST FRI DEC 26 2014

NOTE: "FAIR" INDICATES FEW OR NO CLOUDS BELOW 12,000 FEET WITH NO
SIGNIFICANT WEATHER AND/OR OBSTRUCTIONS TO VISIBILITY.

* - THESE STATIONS ARE NOT NWS STATIONS...THUS NOT UNDER NWS
QUALITY CONTROL.  THEY ALSO DO NOT REPORT WEATHER SUCH
AS PRECIPITATION OR FOG.

IAZ001>003-012>014-020>022-031>034-043>046-270600-
   NORTHWEST IOWA

CITY           SKY/WX    TMP DP  RH WIND       PRES   REMARKS
CARROLL *      LGT SNOW  30  30 100 N12       29.98F WCI  21
CHEROKEE *     LGT SNOW  27  27 100 N12       30.02F WCI  16
DENISON *      LGT SNOW  30  30 100 N6        29.98F WCI  24
LE MARS *      LGT SNOW  27  25  93 N12       30.06S WCI  16
ORANGE CITY *  LGT SNOW  27  23  86 N12       30.04S WCI  16
SHELDON *      MIX PCPN  25  25 100 N15       30.03S WCI  12
SIOUX CITY     LGT SNOW  27  24  89 NW13      30.07R FOG     WCI  16
SPENCER        LGT SNOW  28  24  85 N14       30.02R FOG     WCI  17
STORM LAKE *   MIX PCPN  27  27 100 N14       30.00F WCI  15
$$

IAZ055>058-069>071-079>083-090>094-270600-
   SOUTHWEST IOWA

CITY           SKY/WX    TMP DP  RH WIND       PRES   REMARKS
ATLANTIC *     MIX PCPN  32  32 100 N6        29.98S WCI  26
AUDUBON *      MIX PCPN  30  27  86 NE8       29.98F WCI  23
CLARINDA *     CLOUDY    34  34 100 CALM      30.02R FOG
COUNCIL BLFS * CLOUDY    32  32 100 N6        30.00R FOG     WCI  26
CRESTON *      FOG       32  32 100 NE5       29.97R VSB 1/4 WCI  27
HARLAN  *      LGT SNOW  32  32 100 N7        30.03R WCI  26
LAMONI         CLOUDY    35  33  92 N3        29.96S FOG
RED OAK *      CLOUDY    32  32 100 N5        30.00R FOG     WCI  27
SHENANDOAH *   CLOUDY    34  34 100 NW5       30.02S FOG     WCI  30
$$

IAZ047>049-059>061-072>074-084-270600-
   CENTRAL IOWA

CITY           SKY/WX    TMP DP  RH WIND       PRES   REMARKS
AMES           CLOUDY    33  32  96 NE5       29.97S FOG     WCI  29
ANKENY *       CLOUDY    34  34 100 CALM      29.97F FOG
CHARITON *     LGT RAIN  34  34 100 CALM      29.97S
DES MOINES     DRIZZLE   35  32  88 CALM      29.97F FOG
GRINNELL*      DRIZZLE   34  32  93 CALM      29.95S
KNOXVILLE *    CLOUDY    34  32  93 NW5       29.96S FOG     WCI  30
MARSHALLTOWN   CLOUDY    34  32  92 NW3       29.95S FOG
PELLA *        DRIZZLE   35  33  93 W6        29.98F WCI  30
PERRY *        CLOUDY    34  34 100 N6        29.97F FOG     WCI  29
$$

IAZ004>006-015-016-023>025-035-036-270600-
   NORTH CENTRAL IOWA

CITY           SKY/WX    TMP DP  RH WIND       PRES   REMARKS
ALGONA *       LGT RAIN  30  30 100 NE13G18   30.00R WCI  20
CLARION *      CLOUDY    32  32 100 N13       29.97R WCI  22
ESTHERVILLE    LGT SNOW  27  25  92 N14       30.01R FOG     WCI  16
FORT DODGE *   CLOUDY    30  28  93 N8        29.99S WCI  23
MASON CITY     CLOUDY    31  29  92 N13       29.98S WCI  21
FOREST CITY *  CLOUDY    32  30  93 N9        29.97F WCI  24
IOWA FALLS *   CLOUDY    32  32 100 N5        29.97R FOG     WCI  27
$$

IAZ007>011-017>019-026>030-037>042-050>054-066-270600-
   NORTHEAST IOWA

CITY           SKY/WX    TMP DP  RH WIND       PRES   REMARKS
CEDAR RAPIDS   LGT RAIN  38  37  97 CALM      29.95S
CHARLES CITY * LGT SNOW  34  34 100 N8        29.96S WCI  27
CLINTON *      CLOUDY    41  36  81 E7        29.99F
DECORAH *      CLOUDY    34  32  93 CALM      29.94S FOG
DUBUQUE        CLOUDY    40  35  83 E6        29.95F
MONTICELLO *   LGT RAIN  37  37 100 CALM      29.96S
OELWEIN *      CLOUDY    34  32  93 E8        29.94F WCI  27
WATERLOO       CLOUDY    34  33  96 NW3       29.96S
$$

IAZ064-065-067-068-078-270600-
   EAST CENTRAL IOWA

CITY           SKY/WX    TMP DP  RH WIND       PRES   REMARKS
DAVENPORT      CLOUDY    43  37  79 E5        29.97S
IOWA CITY      LGT RAIN  41  38  89 NE3       29.97F
MT. PLEASANT * CLOUDY    43  41  93 CALM      29.95S
MUSCATINE *    CLOUDY    43  39  87 NW5       29.96F
QUAD CITIES    LGT RAIN  44  40  85 E5        29.95F
$$

IAZ062-063-075>077-085>089-095>099-270600-
   SOUTHEAST IOWA

CITY           SKY/WX    TMP DP  RH WIND       PRES   REMARKS
BURLINGTON     CLOUDY    50  44  80 S9        29.95S
FAIRFIELD *    CLOUDY    41  37  87 N3        29.96S
FORT MADISON *   N/A     52  46  82 S5        29.96S
KEOKUK *       CLOUDY    52  46  82 S10       29.95S
OSKALOOSA *    CLOUDY    36  34  93 CALM      29.96F
CENTERVILLE *  LGT RAIN  37  37 100 CALM      29.97S
OTTUMWA        CLOUDY    37  35  92 N3        29.96S
WASHINGTON *   MIX PCPN  41  41 100 N7        29.95F
$$

ABBREVIATIONS USED IN REMARKS
   TC - TEMPERATURES IN CELSIUS
  WCI - WIND CHILL INDEX
   HX - HEAT INDEX
  VSB - VISIBILITY
$$




USA.gov is the U.S. government's official web portal to all federal, state and local government web resources and services.